Terminal Aerodrome Forecast
Issued by NWS

Home | Current Version | Previous Version | Graphics & Text | Print | Product List | Glossary Off
Versions: 1 2 3 4 5 6 7 8 9 10 11 12 13 14 15 16 17 18 19 20 21 22 23 24 25 26 27 28 29 30

000
FTUS43 KDDC 260520
TAFHYS
TAF
KHYS 260520Z 2606/2706 34015G19KT P6SM SKC
     FM260700 34014G23KT P6SM OVC003
     FM261200 01011G20KT P6SM BKN007=

USA.gov is the U.S. government's official web portal to all federal, state and local government web resources and services.